AirNav   Air Wisconsin Up To $57,000 Bonus
 
 429 users online  

42VA Virginia Beach Airport
Virginia Beach, Virginia, USA

GOING TO VIRGINIA BEACH?


FAA INFORMATION EFFECTIVE 15 JULY 2021

Location

FAA Identifier: 42VA
Lat/Long: 36-40-44.0550N 076-01-57.9950W
36-40.734250N 076-01.966583W
36.6789042,-76.0327764
(estimated)
Elevation: 15 ft. / 5 m (estimated)
Variation: 10W (1990)
From city: 4 miles SE of VIRGINIA BEACH, VA
Time zone: UTC -4 (UTC -5 during Standard Time)
Zip code: 23457

Airport Operations

Airport use: Private use. Permission required prior to landing
Activation date: 04/1993
Control tower: no
ARTCC: WASHINGTON CENTER
FSS: LEESBURG FLIGHT SERVICE STATION
Attendance: UNATNDD
Wind indicator: yes
Segmented circle: no

Airport Communications

WX ASOS at NTU (9 nm N): PHONE DSN 433-3619 or 757-433-3619
WX AWOS-3 at CPK (14 nm W): 123.675 (757-204-4290)
WX ASOS at ORF (15 nm NW): PHONE 757-460-9348
WX AWOS-3 at ONX (17 nm S): 119.775 (252-453-8939)

Nearby radio navigation aids

VOR radial/distance  VOR name  Freq  Var
ORFr155/15.1NORFOLK VORTAC116.9007W
ECGr022/26.2ELIZABETH CITY VOR/DME112.5007W

 
NDB name  Hdg/Dist  Freq  Var  ID
INGLE142/14.332909WOR --- .-.
WOODVILLE037/28.025410WLLW .-.. .-.. .--

Airport Services

Runway Information

Runway 11/29

Dimensions: 4845 x 190 ft. / 1477 x 58 m
Surface: turf, in good condition
RUNWAY 11  RUNWAY 29
Latitude: 36-40.824167N36-40.644333N
Longitude: 076-02.449500W076-01.483667W
Elevation: 10.0 ft.9.0 ft.
Traffic pattern: leftleft

Airport Ownership and Management from official FAA records

Ownership: Privately-owned
Owner: VIRGINIA BEACH ARPT, LLC
4455 SOUTH BLVD
VIRGINIA BEACH, VA 23452
Phone 757-490-3157
Manager: GERALD YAGEN
4455 SOUTH BLVD
VIRGINIA BEACH, VA 23452
Phone 757-490-3157
EXTENSION 500.

Airport Operational Statistics

Aircraft based on the field: 54
Single engine airplanes: 50
Multi engine airplanes: 4
    

Additional Remarks

AWOS - PHONE 757-204-2683, FREQUENCY 119.925
FOR CD CTC WASHINGTON ARTCC AT 703-771-3587.

Instrument Procedures

There are no published instrument procedures at 42VA.

Some nearby airports with instrument procedures:

KNTU - Oceana Naval Air Station (Apollo Soucek Field) (9 nm N)
KCPK - Chesapeake Regional Airport (14 nm W)
KORF - Norfolk International Airport (15 nm NW)
KONX - Currituck County Regional Airport (17 nm S)
KNGU - Norfolk Naval Station (Chambers Field) (20 nm NW)
 
Loc | Ops | Rwys | IFR | FBO | Links
Com | Nav | Svcs | Stats | Notes
Area around 42VA (Virginia Beach Airport)
 
Road maps at: MapQuest Bing Google
 
Aerial photo
WARNING: Photo may not be current or correct
Aerial photo of 42VA (Virginia Beach Airport)
Photo by Jerry Yagen
Photo taken 10-Nov-2012
looking east.

Do you have a better or more recent aerial photo of Virginia Beach Airport that you would like to share? If so, please send us your photo.

 
Sectional chart

 
Airport distance calculator
Flying to Virginia Beach Airport? Find the distance to fly.

From to 42VA

Sunrise and sunset
Times for 04-Aug-2021
 Local
(UTC-4)
 Zulu
(UTC)
Morning civil twilight05:4509:45
Sunrise06:1310:13
Sunset20:0700:07
Evening civil twilight20:3500:35

Current date and time
Zulu (UTC)  04-Aug-2021 06:58:44
Local (UTC-4)  04-Aug-2021 02:58:44
 
METAR
KNFE 
5nm W 
040611Z AUTO 06006KT 4SM RA BR FEW009 BKN043 OVC070 20/19 A3003 RMK AO2 P0004 T02000189
KNTU 
8nm N 
040627Z 09007KT 4SM +RA FEW008 BKN050 OVC110 22/19 A3002 RMK AO2 P0008 T02170189
KCPK 
14nm W 
040655Z AUTO 05008KT 5SM RA SCT014 SCT045 OVC100 20/19 A3000 RMK AO2 LTG DSNT S T01960190
KORF 
16nm NW 
040651Z 08007KT 5SM RA BR BKN026 OVC035 20/19 A3002 RMK AO2 SLP164 P0010 T02000194
KONX 
17nm S 
040635Z AUTO 03008KT 3SM +RA SCT007 BKN032 OVC060 A2999 RMK AO2 P0013
KNGU 
18nm NW 
040636Z 10005KT 5SM RA BR BKN015 BKN023 OVC085 21/19 A3004 RMK AO2 P0009 T02110189 $
TAF
KNTU 
8nm N 
0323/0423 07012G20KT 9000 SHRA SCT020 BKN030 OVC100 QNH2996INS TEMPO 0323/0404 4800 RA BKN015 OVC030 FM040500 04012G20KT 8000 RA BKN015 OVC020 QNH2983INS TEMPO 0405/0411 1600 SHRA BR OVC005 FM041800 33010G20KT 9999 BKN010 OVC030 QNH2988INS T17/0410Z T23/0419Z FN20051
KORF 
16nm NW 
040540Z 0406/0506 07008KT P6SM -RA OVC040 FM040800 05010KT 4SM RA BR OVC012 TEMPO 0408/0410 2SM +RA FM041000 05014KT 2SM +RA BR OVC012 FM041500 05015G25KT P6SM -RA OVC012 FM042000 03012G20KT P6SM OVC025
KNGU 
18nm NW 
0323/0423 08008G16KT 9999 -RA BKN030 OVC120 QNH3002INS TEMPO 0323/0402 8000 SHRA BR BKN015 OVC100 FM040200 05012G20KT 8000 SHRA BR BKN015 OVC100 QNH2996INS FM041000 03018G28KT 6000 SHRA BR BKN005 OVC015 QNH2994INS T20/0407Z T24/0419Z FN20003
NOTAMs
Click for the latest NOTAMs
NOTAMs are issued by the DoD/FAA and will open in a separate window not controlled by AirNav.

 

 
 

Would you like to see your business listed on this page?

 If your business provides an interesting product or service to pilots, flight crews, aircraft, or users of the Virginia Beach Airport, you should consider listing it here.  To start the listing process, click on the button below
 
Add a business
 

Other Pages about Virginia Beach Airport

www.vbairport.com
Military Aviation Museum
www.fighterfactory.com
 
Update a link
 
Copyright © AirNav, LLC. All rights reserved. Privacy Policy  Contact